Benson, MN

1:40 PM CST on December 18, 2017 (GMT -0600)
Benson Municipal

Weather History for KBBB - December, 2012

Change the Weather History Date:

Tuesday, December 4, 2012

  Actual Average Record
Temperature  
Mean Temperature 22 °F -  
Max Temperature 33 °F 29 °F 48 °F (1998)
Min Temperature 12 °F 12 °F -15 °F (1991)
Degree Days  
Heating Degree Days 42    
Moisture  
Dew Point 14 °F    
Average Humidity 72    
Maximum Humidity 92    
Minimum Humidity 51    
Precipitation  
Precipitation 0.00 in - - ()
Sea Level Pressure  
Sea Level Pressure 30.21 in    
Wind  
Wind Speed 10 mph (North)    
Max Wind Speed 16 mph    
Max Gust Speed 21 mph    
Visibility 10 miles    
Events      
Averages and records for this station are not official NWS values.
T = Trace of Precipitation, MM = Missing Value Source: NWS Daily Summary

Daily Weather History Graph

Daily Weather History Graph

Search for Another Location

Airport or City:

Trip Planner

Search our weather history database for the weather conditions in past years. The results will help you decide how hot, cold, wet, or windy it might be!

Date:

Astronomy

Dec. 04, 2012 Rise Set
Actual Time 7:45 AM CST 4:40 PM CST
Civil Twilight 7:12 AM CST 5:13 PM CST
Nautical Twilight 6:34 AM CST 5:50 PM CST
Astronomical Twilight 5:59 AM CST 6:26 PM CST
Moon 10:40 PM CST (12/4) 11:30 AM CST (12/4)
Length of Visible Light 10h 01m
Length of Day
8h 54m
Waning Gibbous, 69% of the Moon is Illuminated
Dec 4
Waning Gibbous
Dec 6
Last Quarter
Dec 13
New
Dec 19
First Quarter
Dec 28
Full

Hourly Weather History & Observations

Time (CST) Temp. Windchill Dew Point Humidity Pressure Visibility Wind Dir Wind Speed Gust Speed Precip Events Conditions
12:12 AM 33.8 °F 25.8 °F 26.6 °F 75% 29.97 in 10.0 mi NW 10.4 mph - N/A   Clear
12:33 AM 33.8 °F 25.3 °F 26.6 °F 75% 29.97 in 10.0 mi NW 11.5 mph - N/A   Clear
12:53 AM 33.8 °F 27.0 °F 26.6 °F 75% 29.97 in 10.0 mi NW 8.1 mph - N/A   Clear
1:12 AM 30.2 °F 22.6 °F 24.8 °F 80% 29.99 in 10.0 mi NNW 8.1 mph - N/A   Clear
1:33 AM 30.2 °F 21.3 °F 24.8 °F 80% 29.98 in 10.0 mi NNW 10.4 mph - N/A   Clear
1:53 AM 30.2 °F 21.9 °F 24.8 °F 80% 29.99 in 10.0 mi NW 9.2 mph - N/A   Clear
2:12 AM 28.4 °F 19.1 °F 24.8 °F 86% 30.00 in 10.0 mi NNW 10.4 mph - N/A   Clear
2:33 AM 26.6 °F 18.2 °F 23.0 °F 86% 30.01 in 10.0 mi NNW 8.1 mph - N/A   Clear
2:53 AM 26.6 °F 19.1 °F 21.2 °F 80% 30.02 in 10.0 mi North 6.9 mph - N/A   Clear
3:13 AM 24.8 °F 14.0 °F 21.2 °F 86% 30.03 in 10.0 mi North 11.5 mph - N/A   Clear
3:33 AM 24.8 °F 14.6 °F 21.2 °F 86% 30.03 in 10.0 mi North 10.4 mph - N/A   Clear
3:52 AM 24.8 °F 14.0 °F 19.4 °F 80% 30.04 in 10.0 mi North 11.5 mph - N/A   Clear
4:13 AM 24.8 °F 14.0 °F 17.6 °F 74% 30.05 in 10.0 mi North 11.5 mph - N/A   Clear
4:33 AM 24.8 °F 14.6 °F 17.6 °F 74% 30.05 in 10.0 mi North 10.4 mph - N/A   Clear
4:52 AM 24.8 °F 14.0 °F 17.6 °F 74% 30.06 in 10.0 mi North 11.5 mph - N/A   Clear
5:13 AM 24.8 °F 13.4 °F 15.8 °F 69% 30.06 in 10.0 mi North 12.7 mph - N/A   Clear
5:33 AM 23.0 °F 11.7 °F 15.8 °F 74% 30.07 in 10.0 mi NNW 11.5 mph - N/A   Clear
5:52 AM 21.2 °F 9.5 °F 15.8 °F 80% 30.08 in 10.0 mi NNW 11.5 mph - N/A   Clear
6:13 AM 21.2 °F 10.1 °F 15.8 °F 80% 30.09 in 10.0 mi North 10.4 mph - N/A   Clear
6:33 AM 21.2 °F 8.3 °F 15.8 °F 80% 30.10 in 10.0 mi NNW 13.8 mph 17.3 mph N/A   Clear
6:52 AM 21.2 °F 8.3 °F 15.8 °F 80% 30.12 in 10.0 mi NNW 13.8 mph - N/A   Clear
7:13 AM 19.4 °F 6.0 °F 14.0 °F 80% 30.13 in 10.0 mi North 13.8 mph - N/A   Clear
7:52 AM 19.4 °F 8.6 °F 14.0 °F 80% 30.15 in 10.0 mi NNW 9.2 mph - N/A   Clear
8:13 AM 19.4 °F 6.6 °F 14.0 °F 80% 30.16 in 10.0 mi North 12.7 mph 18.4 mph N/A   Clear
8:32 AM 19.4 °F 7.9 °F 14.0 °F 80% 30.17 in 10.0 mi NNW 10.4 mph - N/A   Clear
8:53 AM 21.2 °F 8.9 °F 14.0 °F 74% 30.19 in 10.0 mi North 12.7 mph - N/A   Clear
9:13 AM 21.2 °F 7.8 °F 14.0 °F 74% 30.20 in 10.0 mi North 15.0 mph 19.6 mph N/A   Clear
9:32 AM 21.2 °F 7.8 °F 14.0 °F 74% 30.21 in 10.0 mi North 15.0 mph 18.4 mph N/A   Clear
9:53 AM 21.2 °F 7.3 °F 12.2 °F 68% 30.21 in 10.0 mi North 16.1 mph - N/A   Clear
10:13 AM 23.0 °F 9.6 °F 12.2 °F 63% 30.23 in 10.0 mi North 16.1 mph - N/A   Clear
10:32 AM 23.0 °F 10.1 °F 12.2 °F 63% 30.23 in 10.0 mi North 15.0 mph - N/A   Clear
10:53 AM 24.8 °F 13.4 °F 12.2 °F 59% 30.24 in 10.0 mi North 12.7 mph 19.6 mph N/A   Clear
11:13 AM 24.8 °F 13.4 °F 12.2 °F 59% 30.25 in 10.0 mi North 12.7 mph 18.4 mph N/A   Clear
11:32 AM 24.8 °F 12.9 °F 12.2 °F 59% 30.25 in 10.0 mi North 13.8 mph - N/A   Clear
11:53 AM 26.6 °F 14.7 °F 12.2 °F 55% 30.24 in 10.0 mi North 15.0 mph 20.7 mph N/A   Clear
12:13 PM 26.6 °F 15.7 °F 12.2 °F 55% 30.26 in 10.0 mi North 12.7 mph 18.4 mph N/A   Clear
12:32 PM 26.6 °F 14.7 °F 12.2 °F 55% 30.25 in 10.0 mi North 15.0 mph 19.6 mph N/A   Clear
12:53 PM 26.6 °F 16.2 °F 12.2 °F 55% 30.25 in 10.0 mi North 11.5 mph 19.6 mph N/A   Clear
1:12 PM 26.6 °F 15.7 °F 12.2 °F 55% 30.26 in 10.0 mi North 12.7 mph - N/A   Clear
1:33 PM 26.6 °F 15.2 °F 12.2 °F 55% 30.26 in 10.0 mi North 13.8 mph 18.4 mph N/A   Clear
1:53 PM 26.6 °F 15.7 °F 12.2 °F 55% 30.27 in 10.0 mi North 12.7 mph 18.4 mph N/A   Clear
2:13 PM 26.6 °F 16.2 °F 12.2 °F 55% 30.27 in 10.0 mi North 11.5 mph 16.1 mph N/A   Clear
2:33 PM 26.6 °F 16.2 °F 12.2 °F 55% 30.28 in 10.0 mi NNW 11.5 mph - N/A   Clear
2:53 PM 26.6 °F 15.2 °F 12.2 °F 55% 30.28 in 10.0 mi NNW 13.8 mph - N/A   Clear
3:12 PM 26.6 °F 15.7 °F 10.4 °F 51% 30.28 in 10.0 mi North 12.7 mph - N/A   Clear
3:33 PM 26.6 °F 16.2 °F 10.4 °F 51% 30.28 in 10.0 mi North 11.5 mph - N/A   Clear
3:53 PM 24.8 °F 14.6 °F 10.4 °F 54% 30.29 in 10.0 mi North 10.4 mph - N/A   Clear
4:10 PM 24.8 °F 16.1 °F 10.4 °F 54% 30.30 in 10.0 mi North 8.1 mph - N/A   Clear
4:53 PM 19.4 °F 11.5 °F 10.4 °F 68% 30.31 in 10.0 mi North 5.8 mph - N/A   Clear
5:12 PM 19.4 °F - 10.4 °F 68% 30.31 in 10.0 mi North - - N/A   Clear
5:33 PM 17.6 °F 10.7 °F 10.4 °F 73% 30.31 in 10.0 mi North 4.6 mph - N/A   Clear
5:53 PM 17.6 °F 10.7 °F 10.4 °F 73% 30.31 in 10.0 mi North 4.6 mph - N/A   Clear
6:12 PM 17.6 °F - 10.4 °F 73% 30.31 in 10.0 mi Calm Calm - N/A   Clear
6:33 PM 17.6 °F - 10.4 °F 73% 30.31 in 10.0 mi Calm Calm - N/A   Clear
6:52 PM 15.8 °F - 10.4 °F 79% 30.32 in 10.0 mi Calm Calm - N/A   Clear
7:13 PM 15.8 °F - 8.6 °F 73% 30.32 in 10.0 mi Calm Calm - N/A   Clear
7:33 PM 14.0 °F - 8.6 °F 79% 30.33 in 10.0 mi Calm Calm - N/A   Clear
7:52 PM 12.2 °F - 8.6 °F 85% 30.33 in 10.0 mi Calm Calm - N/A   Clear
8:13 PM 12.2 °F - 8.6 °F 85% 30.34 in 10.0 mi Calm Calm - N/A   Clear
8:32 PM 12.2 °F - 8.6 °F 85% 30.34 in 10.0 mi Calm Calm - N/A   Clear
8:53 PM 12.2 °F - 6.8 °F 79% 30.35 in 10.0 mi Calm Calm - N/A   Clear
9:13 PM 12.2 °F 6.1 °F 6.8 °F 79% 30.35 in 10.0 mi North 3.5 mph - N/A   Clear
9:32 PM 12.2 °F - 8.6 °F 85% 30.36 in 10.0 mi Calm Calm - N/A   Clear
9:53 PM 12.2 °F - 10.4 °F 92% 30.36 in 10.0 mi Calm Calm - N/A   Clear
10:13 PM 12.2 °F - 10.4 °F 92% 30.36 in 10.0 mi Calm Calm - N/A   Clear
10:32 PM 15.8 °F - 10.4 °F 79% 30.36 in 10.0 mi Calm Calm - N/A   Clear
10:53 PM 15.8 °F - 10.4 °F 79% 30.36 in 10.0 mi Calm Calm - N/A   Clear
11:13 PM 15.8 °F - 10.4 °F 79% 30.36 in 10.0 mi Calm Calm - N/A   Clear
11:32 PM 15.8 °F 10.2 °F 10.4 °F 79% 30.37 in 10.0 mi SE 3.5 mph - N/A   Clear
11:53 PM 15.8 °F 10.2 °F 10.4 °F 79% 30.36 in 10.0 mi ESE 3.5 mph - N/A   Clear